Hourly Data Report for April 12, 2019

OTTAWA INTL A
ONTARIO
Current Station Operator: NAVCAN

45°19'00.000" N
75°40'00.000" W
114.90 m
6106001
71628
YOW

Download Data

Hourly Data (April 2019)
Hourly Data Report for April 12, 2019
TIME
LST
Temp Definition
°C
Dew Point Definition
°C
Rel Hum Definition
%
Precip. Amount Definition
mm

Wind Dir Definition
10's deg

Wind Spd Definition
km/h
Visibility Definition
km
Stn Press Definition
kPa
Hmdx Definition


Wind Chill Definition


Weather Definition


00:00 2.2 -5.0 59   8 11 24.1 101.04     LegendNANA
01:00 2.0 -4.7 61   6 12 24.1 100.98     Cloudy
02:00 1.8 -5.1 60   5 18 24.1 100.92     LegendNANA
03:00 1.7 -4.9 61   7 26 24.1 100.74     LegendNANA
04:00 1.9 -4.7 62   8 20 24.1 100.72     Mostly Cloudy
05:00 1.6 -4.2 65   7 19 24.1 100.66     LegendNANA
06:00 1.7 -3.8 67   8 21 24.1 100.61     LegendNANA
07:00 2.5 -3.6 64   8 22 24.1 100.60     Mostly Cloudy
08:00 3.8 -3.4 59   7 18 24.1 100.53     LegendNANA
09:00 4.6 -3.1 57   7 25 24.1 100.43     LegendNANA
10:00 7.2 -1.5 54   9 27 24.1 100.32     Mostly Cloudy
11:00 9.2 -0.2 52   8 21 24.1 100.25     LegendNANA
12:00 10.7 1.4 53   9 24 24.1 100.13     LegendNANA
13:00 11.3 1.8 52   8 23 24.1 100.00     Mostly Cloudy
14:00 11.2 2.2 54   8 22 24.1 99.95     LegendNANA
15:00 8.8 5.2 78   5 14 16.1 99.96     Rain
16:00 7.2 3.8 79   5 20 24.1 99.87     Cloudy
17:00 6.8 3.7 81   8 18 24.1 99.85     Rain
18:00 7.1 3.9 80   10 11 24.1 99.79     LegendNANA
19:00 6.9 4.0 82   6 13 24.1 99.73     Cloudy
20:00 7.0 4.2 82   5 11 24.1 99.68     Drizzle
21:00 6.4 4.8 90   5 11 12.9 99.66     LegendNANA
22:00 5.1 3.8 91   6 11 12.9 99.62     Cloudy
23:00 4.7 3.6 92   11 9 24.1 99.57     LegendNANA

Notes on Data Quality.

Legend

  • E = Estimated
  • M = Missing
  • NA = Not Available*
  • [empty] = Indicates an unobserved value
Date modified: